Home > Weather > Victoria > Past weeks

Flag for Canada Past Weather in Victoria, British Columbia, Canada — Yesterday and Last 2 Weeks

Now
72 °F

Partly sunny.


Feels Like: 76 °F
Forecast: 60 / 72 °F
Wind: 6 mph from Southeast

Location: Victoria Int. Airportb. C.

Current Time: Jul 25, 2016 at 1:20:27 PM

Latest Report: Jul 25, 2016 at 12:00 PM


Visibility: 30 mi

Pressure: 30.07 "Hg

Humidity: 61%

Dew Point: 57 °F

Location of VictoriaLocation

Past Weather in Victoria — Graph

°F

Victoria Temperature Yesterday

Maximum temperature yesterday: 73 °F (at 2:00 PM)
Minimum temperature yesterday: 57 °F (at 1:00 AM)
Average temperature yesterday: 65 °F

High & Low Weather Summary for the Past Weeks

 TemperatureHumidityPressure
High79 °F (Jul 21, 3:00 PM)94% (Jul 11, 10:00 PM)30.25 "Hg (Jul 11, 10:00 PM)
Low54 °F (Jul 14, 5:00 AM)39% (Jul 22, 1:00 PM)29.89 "Hg (Jul 17, 7:00 PM)
Average64 °F68%30.08 "Hg
* Reported Jul 10 12:00 PM — Jul 25 12:00 PM, Victoria, Weather by CustomWeather, © 2016

Note: Actual official high and low records may vary slightly from our data, if they occured in-between our weather recording intervals... More about our weather records

Advertising

Victoria Weather History for the Previous 24 Hours

Scroll right to see more
 ConditionsComfort  
Time TempWeatherWind HumidityBarometerVisibility
12:00 PM
Mon, Jul 25
72 °FPartly sunny.6 mph61%30.07 "Hg30 mi
11:00 AM72 °FPartly sunny.6 mph61%30.07 "Hg30 mi
10:00 AM70 °FBroken clouds.6 mph64%30.06 "Hg30 mi
9:00 AM64 °FBroken clouds.5 mph68%30.06 "Hg30 mi
8:00 AM63 °FBroken clouds.No wind73%30.06 "Hg30 mi
7:00 AM61 °FBroken clouds.2 mph77%30.05 "Hg30 mi
6:00 AM55 °FPassing clouds.No wind88%30.04 "Hg30 mi
5:00 AM57 °FPassing clouds.2 mph82%30.03 "Hg30 mi
4:00 AM59 °FPassing clouds.No wind82%30.03 "Hg30 mi
3:00 AM59 °FPassing clouds.No wind77%30.02 "Hg30 mi
2:00 AM59 °FPassing clouds.No wind77%30.02 "Hg30 mi
1:00 AM61 °FPassing clouds.2 mph77%30.01 "Hg30 mi
12:00 AM63 °FClear.No wind73%30.01 "Hg30 mi
11:00 PM
Sun, Jul 24
63 °FPassing clouds.2 mph73%30.02 "Hg30 mi
10:00 PM64 °FPassing clouds.No wind68%30.03 "Hg30 mi
9:00 PM66 °FPassing clouds.3 mph64%30.01 "Hg30 mi
8:00 PM68 °FPassing clouds.5 mph60%30.01 "Hg30 mi
7:00 PM73 °FPassing clouds.6 mph50%30.01 "Hg30 mi
6:00 PM73 °FPassing clouds.8 mph50%30.03 "Hg30 mi
5:00 PM73 °FPassing clouds.8 mph50%30.05 "Hg30 mi
4:00 PM73 °FPassing clouds.8 mph50%30.07 "Hg30 mi
3:00 PM73 °FPassing clouds.9 mph50%30.08 "Hg30 mi
2:00 PM73 °FPassing clouds.9 mph50%30.09 "Hg30 mi
1:00 PM70 °FPassing clouds.9 mph53%30.11 "Hg30 mi
Weather by CustomWeather, © 2016

See weather overviewHow to use our weather pages